Location: Mound City (historical)
(34.0564°N, 117.2656°W)
Time: 01:54:15
(UTC+00:00)

SL-16 R/B - Pass Details

Date: 08 September 2024
Orbit: 842 x 845 km, 71.0° (Epoch: 10 October)

Event Time Altitude Azimuth Distance (km) Brightness Sun altitude
Rises 12:57:34 0° 320° (NW) 3,406 5.1 -7.0°
Reaches altitude 10° 13:00:39 10° 304° (NW) 2,467 4.2 -6.4°
Maximum altitude 13:04:34 20° 260° (W) 1,878 3.4 -5.6°
Drops below altitude 10° 13:08:29 10° 216° (SW) 2,456 4.2 -4.8°
Sets 13:11:34 0° 199° (SSW) 3,386 5.1 -4.2°
